Flag for Canada Weather past 2 weeks in Greater Sudbury, Ontario, Canada

Now
46 °F

Passing clouds.


Feels Like: 38 °F
Forecast: 37 / 52 °F
Wind: 23 mph from North

Location: Sudbury

Current Time: Apr 18, 2015 at 12:45:03 PM

Latest Report: Apr 18, 2015 at 12:00 PM


Visibility: 20 mi

Pressure: 30.14 "Hg

Humidity: 50%

Dew point: 28 °F

Location of Greater SudburyLocation

Historic Weather in Greater Sudbury — Graph

°F

Greater Sudbury temperature yesterday

Maximum temperature yesterday: 61 °F (at 3:00 PM)
Minimum temperature yesterday: 37 °F (at 7:00 AM)
Average temperature yesterday: 50 °F

Past Weeks' High & Low Weather Summary

 TemperatureHumidityPressure
High61 °F (Apr 17, 3:00 PM)100% (Apr 9, 5:00 PM)30.46 "Hg (Apr 9, 5:00 PM)
Low10 °F (Apr 5, 7:00 AM)17% (Apr 7, 6:00 PM)29.21 "Hg (Apr 10, 11:00 AM)
Average36 °F58%30.06 "Hg
* Reported Apr 3 11:00 AM — Apr 18 11:00 AM, Greater Sudbury, Weather by CustomWeather, © 2015

Note: Actual official high and low records may vary slightly from our data, if they occured in-between our weather recording intervals... More about our weather records

Advertising

Greater Sudbury weather history for previous 24 hours

 ConditionsComfort  
Time TempWeatherWind HumidityBarometerVisibility
11:00 AM
Sat, Apr 18
45 °FScattered clouds.21 mph61%30.13 "Hg20 mi
10:00 AM43 °FPartly sunny.22 mph61%30.11 "Hg20 mi
9:00 AM45 °FPartly sunny.16 mph61%30.07 "Hg20 mi
8:00 AM43 °FScattered clouds.13 mph66%30.02 "Hg20 mi
7:00 AM34 °FPassing clouds.7 mph70%29.96 "Hg20 mi
6:00 AM39 °FPartly cloudy.8 mph56%29.90 "Hg15 mi
5:00 AM39 °FPartly cloudy.8 mph65%29.90 "Hg15 mi
4:00 AM36 °FPassing clouds.3 mph70%29.89 "Hg15 mi
3:00 AM37 °FPassing clouds.8 mph56%29.89 "Hg15 mi
1:00 AM45 °FClear.9 mph37%29.94 "Hg15 mi
12:00 AM46 °FClear.7 mph34%29.96 "Hg15 mi
11:00 PM
Fri, Apr 17
48 °FClear.5 mph32%29.97 "Hg15 mi
10:00 PM50 °FClear.3 mph28%29.98 "Hg15 mi
9:00 PM50 °FSunny.6 mph30%29.98 "Hg20 mi
8:00 PM52 °FSunny.3 mph30%29.97 "Hg20 mi
7:00 PM57 °FSunny.9 mph23%29.98 "Hg20 mi
6:00 PM59 °FPassing clouds.8 mph23%29.97 "Hg20 mi
5:00 PM59 °FPassing clouds.10 mph23%29.97 "Hg20 mi
4:00 PM59 °FPassing clouds.12 mph21%29.98 "Hg20 mi
3:00 PM61 °FPassing clouds.13 mph36%30.00 "Hg20 mi
2:00 PM59 °FBroken clouds.12 mph42%29.99 "Hg20 mi
1:00 PM59 °FBroken clouds.9 mph42%29.99 "Hg20 mi
12:00 PM57 °FScattered clouds.13 mph39%29.99 "Hg20 mi
Weather by CustomWeather, © 2015

See weather overviewHow to use our weather pages